Location: Azat
(46.0765°N, 1.7600°E)
Time: 22:57:10
(UTC+00:00)

STARLINK-1238 - Pass Details

Date: 09 April 2020
Orbit: 549 x 550 km, 53.0° (Epoch: 05 June)

Event Time Altitude Azimuth Distance (km) Brightness Sun altitude
Rises 20:07:47 0° 298° (WNW) 2,727 9.0 -16.1°
Reaches altitude 10° 20:10:06 10° 291° (WNW) 1,830 7.6 -16.5°
Maximum altitude 20:14:02 43° 220° (SW) 786 4.4 -17.1°
Enters shadow 20:15:48 27° 167° (SSE) 1,076 4.7 -17.3°
